Dewpoint
70 70 70 70 70 70 71 70 70 71 72 71 71 70 69 70 68 67 67 68 68 70 71 72 76 75 77 76 77 76 76 76 76 76 77 77 77 75 74 74 74 75 76 76 77 77 78 79 79 79 78 78 77 77 76 75 75 75 75 74 74 75 75 74 73 73 73 74 74 75 75 75 75 75
71 70 70 70 69 71 71 71 70 71 72 71 71 71 71 71 70 69 67 68 68 71 72 72 74 76 76 76 76 76 77 77 76 77 76 77 77 75 74 74 74 74 74 75 75 76 77 77 78 79 79 78 78 77 77 76 75 75 75 74 74 73 74 74 73 73 74 74 74 75 75 75 75 75
71 71 71 71 70 71 71 71 71 71 71 71 71 71 71 71 71 71 70 67 70 68 71 73 74 74 76 76 75 75 76 76 76 76 76 76 75 75 75 74 74 73 73 73 74 75 76 77 78 78 79 79 78 78 78 77 76 75 75 75 74 73 74 74 73 74 74 74 74 75 75 75 75 75
72 72 71 72 72 72 72 71 71 71 72 71 71 71 71 71 71 72 71 69 68 73 73 72 72 73 74 76 74 75 75 75 75 76 76 76 75 75 75 73 73 73 73 73 73 73 74 76 77 78 79 78 78 78 78 77 76 76 76 75 74 74 74 73 74 74 75 75 75 75 75 74 74 75
72 72 72 72 72 72 71 71 71 70 71 71 72 72 73 71 71 71 71 69 69 71 73 72 72 73 72 72 74 74 75 76 75 75 76 77 75 75 75 75 72 72 72 72 72 72 72 74 76 77 78 78 78 78 78 77 77 76 76 76 76 75 74 74 74 75 75 75 75 75 75 75 75 74
72 72 72 72 71 72 71 71 70 70 71 70 72 72 72 71 72 72 70 69 70 69 71 72 72 73 73 71 74 74 74 75 76 75 76 75 76 76 76 76 76 72 71 71 71 71 71 72 73 75 76 78 78 78 78 77 77 76 75 75 74 73 73 74 74 75 75 75 75 75 75 75 75 74
72 72 73 72 72 72 71 71 71 71 71 72 71 73 73 72 72 72 72 71 70 69 70 71 70 72 73 72 74 75 75 76 75 75 74 74 75 75 75 76 75 72 71 71 71 70 70 71 71 72 73 75 76 76 77 76 74 73 73 73 72 72 73 73 72 73 74 75 75 75 75 75 75 74
72 72 72 72 72 72 72 72 71 72 72 73 74 73 73 72 71 72 72 72 71 71 70 72 70 73 74 74 74 74 75 75 75 75 75 75 75 74 75 75 75 73 71 71 71 70 70 69 69 70 71 72 73 72 72 72 72 71 71 71 71 71 71 71 70 71 72 73 73 74 74 74 74 74
72 72 71 71 72 72 72 72 72 72 72 73 74 72 72 72 71 71 72 72 72 71 70 71 72 73 73 74 75 74 74 74 74 74 75 75 74 75 75 75 76 73 72 71 70 70 69 69 69 68 68 69 70 69 69 70 70 70 69 69 69 69 69 69 69 68 69 69 69 70 71 71 71 71
72 72 72 72 72 72 72 71 72 73 73 74 73 73 73 72 72 72 72 72 72 71 71 71 70 72 71 72 74 73 74 73 73 73 74 74 74 74 73 75 75 76 76 76 75 71 69 68 67 68 68 68 68 68 68 68 68 68 67 67 67 67 67 68 67 67 67 67 67 68 68 69 70 70
72 72 72 72 72 72 72 72 72 73 73 73 72 73 73 72 72 71 72 72 72 71 71 71 71 71 72 72 72 73 74 73 73 72 72 73 74 73 73 73 75 75 75 74 72 73 73 71 71 68 67 67 67 67 67 67 68 67 66 64 65 66 66 66 66 66 65 65 65 64 65 67 68 69
71 72 72 73 73 73 73 73 73 73 73 73 72 72 73 73 72 71 71 71 72 72 71 71 71 72 71 72 72 72 73 72 72 72 72 71 72 72 73 73 73 74 75 74 74 73 72 72 71 69 68 68 68 68 67 67 68 68 66 65 65 65 65 65 65 65 64 64 63 63 62 62 64 66
71 72 72 72 72 73 74 75 75 74 74 73 73 74 73 73 72 72 72 72 71 71 71 70 70 71 70 70 71 70 70 70 71 74 72 71 72 72 72 72 73 73 73 74 74 74 74 74 74 73 73 73 70 70 68 69 69 68 66 65 65 65 64 64 64 64 64 63 63 63 62 60 60 61
70 71 72 73 74 74 75 75 76 76 75 75 73 73 73 73 73 72 72 71 71 71 70 69 70 69 69 70 70 71 72 73 72 72 71 70 72 71 71 71 73 74 73 73 73 73 74 74 74 73 73 73 73 73 72 71 70 68 66 65 65 64 64 64 64 63 63 62 62 62 62 60 60 59
70 70 72 72 73 75 75 75 76 76 76 76 75 75 75 74 73 72 71 72 72 70 69 70 70 70 70 71 71 71 71 72 72 71 71 71 71 70 69 69 72 74 73 73 72 72 73 74 73 73 73 73 73 73 73 68 67 66 65 64 64 64 64 64 63 63 62 61 61 61 60 60 60 59
70 70 71 72 73 74 75 76 76 76 76 77 76 76 76 75 75 74 73 72 71 71 71 70 70 70 70 71 72 71 71 71 71 71 71 71 70 70 69 70 69 72 73 72 71 71 73 73 73 73 73 73 73 72 69 66 66 65 65 64 64 64 63 63 63 63 62 62 61 60 60 60 60 60
71 72 72 72 73 73 74 75 76 76 76 76 77 77 77 76 75 71 71 73 73 73 72 71 71 71 72 71 72 72 72 73 72 71 71 70 70 70 70 70 70 72 73 72 71 70 72 72 72 72 73 72 71 69 64 64 65 65 64 64 64 64 63 63 63 62 62 62 61 61 60 60 60 59
72 73 72 73 73 74 74 75 76 76 76 76 76 75 76 76 75 75 74 73 73 74 73 72 71 73 73 72 72 73 74 73 71 71 71 71 70 70 70 71 72 73 73 71 71 70 71 72 72 71 72 70 68 67 62 62 63 63 63 63 63 63 63 63 63 62 62 61 61 60 59 59 59 59
72 72 73 73 73 74 74 74 75 75 75 75 75 75 75 75 75 75 75 74 75 75 74 73 73 73 73 73 73 73 74 73 73 73 72 72 72 72 72 71 71 72 72 71 70 69 71 71 71 71 71 68 66 65 63 61 62 62 62 62 62 62 62 62 62 62 61 60 60 59 58 58 58 58
72 72 73 73 73 73 73 74 74 75 75 74 72 72 72 73 74 74 74 71 72 75 75 74 74 74 74 72 73 74 74 74 73 73 73 72 71 71 70 69 70 70 71 72 70 69 70 70 71 70 67 68 68 65 65 61 61 61 61 61 61 61 61 61 61 61 60 60 59 58 58 57 56 56
72 72 72 72 72 72 73 72 68 70 74 72 72 72 72 72 73 73 74 71 69 69 69 69 69 69 68 68 67 67 68 72 72 71 70 70 71 70 69 69 70 69 70 71 71 70 69 70 70 70 68 68 68 68 67 64 60 60 60 60 60 60 60 60 60 59 59 59 59 58 57 56 55 56
72 72 73 73 72 72 72 69 66 67 74 73 72 71 71 71 71 71 73 73 73 69 68 67 68 68 68 68 68 68 67 67 71 70 68 70 71 69 69 68 68 68 68 69 71 70 69 69 69 69 68 69 69 68 66 64 61 59 59 59 59 59 59 59 59 58 58 58 58 57 57 56 57 61
71 71 72 73 73 73 72 66 65 65 73 73 73 72 71 71 70 71 72 72 72 72 72 72 71 71 71 72 71 71 70 70 71 71 71 71 70 69 68 68 67 66 67 69 71 69 68 68 68 69 68 67 68 67 66 67 63 63 64 62 62 59 59 58 58 57 57 57 57 57 57 55 56 61
70 71 71 72 69 66 65 64 63 63 65 72 73 73 71 70 70 72 72 72 72 72 72 72 71 71 71 71 72 71 72 71 72 71 71 71 70 69 69 68 67 65 66 70 72 70 69 69 69 69 69 67 65 67 65 66 65 63 62 62 62 60 59 57 56 55 56 56 56 55 55 55 55 61
69 70 71 71 69 64 63 62 61 61 62 68 72 72 72 72 72 73 72 71 72 71 71 71 71 71 71 71 71 71 70 71 71 72 71 71 71 70 69 67 66 66 67 69 69 70 68 69 68 69 68 68 68 66 64 64 64 64 63 62 62 60 61 60 59 60 54 53 53 52 52 53 54 57
69 70 70 71 69 64 62 61 60 58 60 63 70 72 67 66 67 72 72 72 72 71 70 70 70 70 69 69 69 69 69 70 70 71 71 70 70 71 70 68 67 66 68 70 66 71 69 68 69 67 66 67 66 66 65 65 65 64 63 63 62 61 61 61 60 60 60 60 60 56 57 53 54 54
69 70 71 71 68 62 60 59 59 59 59 64 67 64 63 64 66 71 72 71 70 71 70 69 69 69 69 68 68 69 69 69 70 70 70 70 69 69 69 69 70 70 71 71 71 71 70 69 69 68 67 65 66 65 64 65 65 63 63 63 63 62 61 60 60 61 60 60 60 56 54 54 54 55
70 70 70 70 63 60 57 57 58 59 62 65 60 60 62 64 68 71 70 70 70 70 69 69 69 69 69 69 68 69 69 69 68 69 69 68 68 69 69 70 70 70 70 70 70 71 70 69 68 68 69 67 67 65 65 65 65 65 65 64 63 63 62 61 61 61 62 62 61 61 61 61 61 60
68 66 61 59 58 59 58 58 58 59 62 60 61 61 63 71 70 69 69 68 68 68 68 69 69 69 69 69 69 70 70 69 68 69 69 68 69 69 69 69 71 71 70 70 70 70 70 69 68 67 67 67 66 65 65 64 66 65 64 64 64 64 63 62 62 62 63 63 62 61 61 62 62 62
64 61 58 57 57 59 61 65 65 66 66 62 63 64 67 69 69 69 69 68 68 68 68 69 69 69 70 70 70 70 69 68 68 68 68 68 68 68 68 67 66 66 67 68 69 68 68 68 68 67 67 67 66 65 64 64 64 64 64 64 64 65 65 64 63 62 62 63 62 62 62 62 62 61
65 64 65 63 61 63 64 66 68 67 67 68 67 66 67 68 68 69 69 68 68 68 68 68 69 69 70 70 69 67 68 68 68 68 68 68 67 67 66 66 65 66 67 67 67 67 67 68 67 67 67 65 64 64 64 64 64 64 63 64 64 62 64 64 63 63 63 62 62 62 62 62 62 61
65 65 64 64 65 66 65 66 66 67 67 66 66 66 67 67 68 68 69 69 69 69 69 69 68 68 68 68 68 68 68 67 68 69 68 67 66 66 65 64 64 64 66 65 67 67 68 66 67 67 68 67 65 63 62 63 64 64 63 63 63 64 64 64 64 64 63 63 62 62 62 62 62 63
65 65 65 64 64 65 64 64 64 64 65 65 65 65 65 66 67 67 67 66 66 67 68 67 67 67 67 67 67 67 67 67 67 68 67 67 66 65 65 64 64 64 64 65 65 65 65 66 66 66 66 66 65 64 63 63 62 63 63 63 62 62 62 63 63 64 63 62 62 63 63 63 63 62
64 64 64 64 64 64 64 64 64 64 64 64 64 64 64 66 66 66 67 66 66 66 67 67 67 66 67 66 67 67 67 66 67 67 65 65 65 65 64 64 64 64 64 65 65 65 65 65 65 64 64 64 64 65 65 63 63 63 62 62 62 62 63 63 63 63 63 63 63 62 62 63 63 62
64 63 63 64 64 64 64 64 64 64 64 64 64 64 64 64 64 65 65 65 65 66 66 66 66 66 66 66 66 66 66 66 65 66 66 65 65 65 65 65 64 64 64 64 64 65 64 64 64 64 65 64 64 64 61 64 63 63 63 62 62 62 62 62 62 62 62 62 62 62 62 63 63 63
63 63 63 63 63 63 63 63 64 64 64 65 65 65 64 64 64 64 64 64 65 66 66 66 66 66 66 66 66 66 66 66 65 66 65 65 65 65 65 64 64 64 64 64 64 64 64 64 64 63 62 62 61 60 60 58 61 64 62 63 61 61 62 62 62 62 62 62 61 61 61 62 62 63
63 63 63 63 63 63 63 63 63 63 64 65 65 65 64 64 64 64 64 63 65 66 66 66 66 66 66 66 66 66 66 65 65 65 65 65 65 64 64 64 64 64 63 63 63 63 63 64 63 63 62 61 60 59 60 62 58 58 63 63 63 61 63 62 62 62 62 62 61 61 61 62 61 62
63 63 63 63 63 63 63 63 63 63 64 64 64 64 65 65 64 65 64 64 65 65 66 66 66 66 66 66 66 65 65 65 65 65 65 65 64 64 64 64 64 64 64 64 63 63 63 64 63 63 62 61 60 59 59 60 59 59 58 63 63 63 63 63 63 62 63 62 61 62 62 61 61 62
63 63 63 63 63 63 63 63 64 63 64 64 64 64 65 65 65 64 63 64 64 65 65 66 66 66 66 65 65 65 64 64 64 64 64 64 64 64 64 64 63 63 62 63 62 63 63 63 63 63 62 62 60 61 60 58 58 61 60 57 62 63 63 63 61 62 62 62 62 62 62 62 61 58
64 64 64 64 63 64 64 65 64 64 64 64 64 64 65 65 64 64 64 64 64 64 64 65 66 65 65 65 64 64 64 64 64 63 63 64 64 65 64 64 64 63 62 62 62 62 62 62 63 63 63 63 64 63 61 60 60 61 61 61 55 61 63 62 62 61 61 62 62 61 61 62 60 61
63 63 63 63 62 63 63 63 64 65 65 65 65 65 65 65 65 65 65 65 64 63 63 63 64 65 65 65 64 64 64 64 64 64 64 64 64 64 65 64 63 62 62 62 62 61 61 62 63 62 65 64 63 62 61 60 59 57 58 59 55 55 55 56 63 62 61 62 61 60 59 59 59 59
63 63 63 62 62 62 63 63 63 63 64 64 65 65 66 66 66 66 65 66 66 65 63 63 63 64 65 65 64 64 64 64 63 63 63 63 63 64 64 64 63 62 62 61 62 62 62 63 63 64 64 62 61 60 59 59 59 58 58 60 61 58 55 54 54 54 60 60 60 59 58 58 58 58
63 63 63 63 63 63 63 63 63 63 64 65 65 65 65 65 65 66 65 66 65 64 64 63 63 63 63 64 64 64 64 64 63 63 63 63 63 63 63 63 63 63 62 63 63 62 61 62 64 63 63 61 61 61 59 59 60 59 59 59 60 60 60 54 53 53 52 53 54 57 59 58 57 55
63 63 63 63 63 64 64 64 64 64 65 65 65 65 65 65 64 65 65 65 64 64 64 64 63 63 62 63 63 63 63 63 63 63 62 62 62 62 62 62 62 63 62 62 62 62 61 61 62 63 62 61 61 60 60 59 58 58 59 60 61 60 59 60 61 57 56 53 52 53 54 54 54 55
63 63 64 64 65 65 65 65 65 65 65 65 64 64 64 65 64 64 64 64 64 63 63 63 63 63 63 62 62 62 62 62 62 62 62 61 61 62 62 62 62 61 61 62 61 61 60 60 61 61 61 61 61 61 60 59 59 59 60 60 59 59 60 61 59 58 57 57 54 52 53 54 54 54